www.pogodaiklimat.ru

Погода и климат >> Архив погоды >> Россия >> Якутия >> Усть-Миль


ПОГОДА в Усть-Миле

  • Прогноз погоды в Усть-Миле
  • Монитор погоды в Усть-Миле
  • Климат города

АРХИВ ПОГОДЫ в Усть-Миле

Время (UTC), дата Ветер
(напр.,м/с)
 
Видим.   Явления Облачность Т
(С)
Тd
(С)
f
(%)
Тe
(С)
Тes
(С)
Комфортность P
(гПа)
Po
(гПа)
Тmin
(С)
Tmax
(С)
R
(мм)
R24
(мм)
S
(см)
09 18.04 В 1 50 км 10/3 600 м
[Cb cap Ac trans Ci fib]
+3.3 -8.9 40 +3 +3 1011.2 989.0 +5.5
12 18.04 В 1 50 км 10/0
[Ac trans Cs]
+0.3 -9.5 48 -1 -1 1011.7 989.3
15 18.04 В 1 50 км 10/0
[Ac trans Cs]
+0.3 -9.5 48 -1 -1 1011.7 989.3
18 18.04 СВ 1 50 км 10/0
[Cs]
-2.1 -8.8 60 -4 -4 1012.0 989.5
21 18.04 В 1 50 км 10/0
[As op]
-1.2 -6.9 65 -3 -3 1013.0 990.5 -3.5 44
00 19.04 ЮВ 2 50 км 10/0
[As op]
+1.0 -3.9 70 -2 -1 1013.0 990.6
03 19.04 ЮВ 2 50 км 10/8 600 м
[Cb cap Cs]
+3.0 -3.5 62 0 +2 1013.2 991.0
06 19.04 Ю 1 50 км 10/8 600 м
[Cb cap As op]
+3.2 -3.9 60 +2 +2 1013.2 991.0
09 19.04 ЮВ 2 50 км 10/3 600 м
[Sc diur, vesp Cs]
+3.4 -3.0 63 +1 +1 1013.9 991.7 +3.5
12 19.04 В 2 50 км 10/4 600 м
[Sc Ac trans Cs]
+1.4 -2.7 74 -2 -2 1015.2 992.7
15 19.04 В 1 50 км 10/0
[As op]
+0.6 -2.7 79 -1 -1 1015.2 992.7
18 19.04 СВ 1 50 км 10/0
[As op]
-0.3 -3.4 80 -2 -2 1015.2 992.7
21 19.04 штиль 0 50 км 10/0
[Ac trans Cs]
-0.4 -4.1 76 -1 -1 1015.2 992.7 -0.4 43
00 20.04 ЮВ 1 50 км 8/0
[Ac trans]
+4.8 -2.5 59 +4 +8 1014.5 992.5
03 20.04 В 1 50 км 4/4 600 м
[Cu hum]
+7.0 -5.7 40 +7 +14 1013.1 991.2
06 20.04 штиль 0 50 км 3/3 600 м
[Cu hum]
+8.4 -4.2 41 +8 +15 1011.1 989.4
09 20.04 ЮВ 1 50 км 3/0
[Ac trans]
+9.2 -4.0 39 +9 +10 1009.8 988.1 +9.4
12 20.04 штиль 0 50 км ясно +0.6 -6.3 60 0 0 1010.6 988.2
15 20.04 штиль 0 50 км ясно -2.3 -7.8 66 -3 -3 1010.3 987.6
18 20.04 штиль 0 50 км ясно -4.7 -9.1 71 -5 -5 1009.8 987.0
21 20.04 штиль 0 50 км 4/0
[Ci fib]
-2.2 -8.1 64 -3 -2 1009.5 987.1 -4.7 40
00 21.04 ЮВ 1 50 км 4/0
[Ci fib]
+7.4 -3.0 48 +7 +14 1009.0 987.2
03 21.04 Ю 2 50 км 3/0
[Ci fib]
+10.1 -2.1 42 +9 +19 опасность
простуды
1008.0 986.5
06 21.04 Ю 2 50 км 4/0
[Ci fib]
+10.9 -2.7 38 +10 +16 1007.4 985.9
09 21.04 Ю 2 50 км 5/3
[Cb calv Ci fib]
+10.4 -2.8 39 +10 +10 1007.7 986.2 +12.5
12 21.04 Ю 1 50 км 10/0
[Ac trans Ci fib]
+6.6 -5.1 43 +6 +6 1009.9 988.0
15 21.04 ЮВ 1 50 км ясно +4.5 -5.5 48 +4 +4 1010.8 988.8
18 21.04 В 2 50 км ясно +2.6 -5.1 57 0 0 1011.9 989.7
21 21.04 В 2 50 км 4/0
[Ac trans]
+2.5 -3.1 67 -0 0 1012.3 990.1 +2.5 37
00 22.04 ЮВ 3 50 км ясно +6.0 -2.2 56 +3 +9 1012.9 991.0
03 22.04 ЮВ 2 50 км 3/0
[Ci fib]
+10.0 -0.2 49 +9 +19 опасность
простуды
1012.8 991.2
06 22.04 ЮВ 4 50 км ясно +10.2 +0.7 52 +8 +8 1013.1 991.5
09 22.04 В 3 50 км ясно +9.9 -0.4 49 +8 +9 1013.6 992.0 +10.4
12 22.04 В 1 50 км ясно +3.8 -4.6 54 +3 +3 1015.9 993.7
15 22.04 СВ 2 50 км ясно +2.2 -4.9 59 -1 -1 1016.6 994.3
18 22.04 В 1 50 км ясно +0.2 -4.9 69 -1 -1 1018.4 995.9
21 22.04 штиль 0 50 км 10/0
[Ac trans Ci fib]
-2.7 -5.3 82 -4 -3 1019.1 996.2 -2.7 134
00 23.04 В 1 50 км 10/0
[Ac trans Ci fib]
+7.9 -0.6 55 +8 +13 1018.3 996.5
03 23.04 ЮВ 2 50 км 10/3 600 м
[Cu hum Ci fib]
+9.3 -0.6 50 +8 +14 1018.0 996.2
06 23.04 В 2 50 км 10/4 600 м
[Cb cap Cs]
+9.6 -1.5 46 +9 +12 1017.6 995.8
09 23.04 ЮВ 1 50 км 10/6 600 м
[Cb cap Cs]
+8.4 -0.9 52 +8 +9 1018.7 996.9 +9.8
12 23.04 штиль 0 50 км 10/3 600 м
[Cb cap Cs]
+2.3 -4.0 63 +2 +2 1019.5 997.2
15 23.04 штиль 0 50 км 10/0
[Cs]
-1.8 -5.2 78 -3 -3 1020.6 997.8
18 23.04 штиль 0 50 км 10/0
[Cs]
-2.3 -4.8 83 -3 -3 1021.8 999.0
21 23.04 штиль 0 50 км 8/8 600 м
[Sc]
-2.5 -3.4 94 -4 -4 1023.0 1000.1 -2.6 15
00 24.04 штиль 0 50 км 6/0
[Ac trans]
+5.2 -1.2 63 +5 +10 1023.4 1001.1
03 24.04 ЮВ 1 50 км 6/3 600 м
[Cu hum Ac trans]
+9.7 -3.2 40 +10 +17 1022.6 1000.8
06 24.04 В 2 50 км 8/4 600 м
[Cu hum Ac trans]
+9.8 -2.6 42 +9 +11 1022.0 1000.2
09 24.04 СВ 1 50 км 8/0
[Ac trans]
+9.5 -2.4 43 +10 +10 1021.8 999.8 +10.5
12 24.04 штиль 0 50 км 4/0
[Ac trans]
+0.9 -6.3 59 0 0 1022.8 1000.2
15 24.04 штиль 0 50 км 4/0
[Ac trans]
-0.9 -4.4 77 -2 -2 1023.3 1000.5
18 24.04 штиль 0 50 км 3/0
[Ac trans]
-3.5 -6.0 83 -5 -5 1023.7 1000.8
21 24.04 штиль 0 50 км 10/0
[Ac trans Ci fib]
-4.4 -5.3 93 -6 -5 1024.0 1000.9 -4.4 10
00 25.04 ЮЗ 1 50 км 10/0
[Ac trans Ci fib]
+2.4 -2.9 68 +1 +6 1023.1 1000.7
03 25.04 СЗ 2 50 км 4/0
[Ac trans]
+8.5 -2.5 46 +7 +16 опасность
простуды
1021.3 999.3

 

Местоположение метеостанции Усть-Миль (Якутия, Россия): широта 59.63 долгота 133.00 высота над уровнем моря 179 м.

В архиве по умолчанию представлена погода в Усть-Миле за последнюю неделю. Архивные данные за месяц целиком и за предыдущие месяцы, начиная с января 2011 года, Вы можете получить, выбрав интересующий диапазон дат из раскрывающегося списка и нажав кнопку "Ввод!".

Внимание! Время в таблицах - всемирное. Для получения местного времени необходимо прибавить поправку, которая в Усть-Миле равна 9 ч.

Смотрите также архив погоды в соседних городах и на ближайших метеорологических станциях:

Погода в Усть-Мае (Якутия, Россия) (112 км)
Погода в Усть-Юдоме (Якутия, Россия) (129 км)
Погода в Амге (Якутия, Россия) (154 км)
Погода в Учуре (Якутия, Россия) (169 км)
Погода в Тегюльте (Якутия, Россия) (191 км)
Погода в Чюльбю (Якутия, Россия) (240 км)
Погода в Югоренке (Якутия, Россия) (259 км)
Погода в Чурапче (Якутия, Россия) (268 км)
Погода в Угино (Якутия, Россия) (280 км)
Погода в Охотском Перевозе (Якутия, Россия) (284 км)

Пояснения к столбцам:

Ветер - указаны скорость ветра в м/с - средняя за 10 мин, порывы в срок и между сроками (в фигурных скобках) и направление, откуда дует ветер: С - северный, СВ - северо-восточный, В - восточный, ЮВ - юго-восточный, Ю - южный, ЮЗ - юго-западный, З - западный, СЗ - северо-западный.
Видимость - горизонтальная дальность видимости в метрах или километрах. При видимости от 1 до 10 км при отсутствии осадков обычно наблюдается дымка, при ухудшении видимости до 1 км и менее - туман. В сухую погоду видимость может ухудшаться дымом, пылью или мглою.
Явления - указаны атмосферные явления, наблюдавшиеся в срок или в последний час перед сроком; фигурными скобками обозначены явления, наблюдавшиеся между сроками (за 1-3 часа до срока); квадратными скобками обозначены град или гололедные отложения с указанием их диаметра в мм.
Облачность - указаны через наклонную черту общая и нижняя облачность в баллах и высота нижней границы облаков в метрах; квадратными скобками обозначены формы облаков: Ci - перистые, Cs - перисто-слоистые, Cc - перисто-кучевые, Ac - высококучевые, As - высокослоистые, Sc - слоисто-кучевые, Ns - слоисто-дождевые, Cu - кучевые, Cb - кучево-дождевые. Подробнее классификацию облаков см. в Атласе облаков (PDF).
T - Температура воздуха - температура, измеренная на высоте 2 м над землей.
Td - Температура точки росы - температура, при понижении до которой содержащийся в воздухе водяной пар достигнет насыщения.
f - Относительная влажность воздуха - влажноcть воздуха, измеренная на высоте 2 м над землей.
Te - Эффективная температура - температура, которую ощущает одетый по сезону человек в тени. Характеристика душности погоды. При расчете учитывается влияние влажности воздуха и скорости ветра на теплоощущения человека.
Tes - Эффективная температура на солнце - температура, которую ощущает человек, с поправкой на солнечный нагрев. Характеристика знойности погоды. Зависит от высоты солнца над горизонтом, облачности и скорости ветра. Ночью, в пасмурную погоду, а также при ветре 12 м/с и более поправка равна нулю.
P - Атмосферное давление - приведенное к уровню моря атмосферное давление.
Po - Атмосферное давление - измеренное на уровне метеостанции атмосферное давление.
Tmin - Минимальная температура - минимум температуры воздуха на высоте 2 м над землей.
Tmax - Максимальная температура - максимум температуры воздуха на высоте 2 м над землей.
R - Количество осадков - Количество выпавших осадков за период времени, мм. При наведении курсора мыши на число - период времени, за который выпало указанное количество осадков.
R24 - Количество осадков - Количество выпавших осадков за 24 часа, мм.
S - Снежный покров - Высота снежного покрова, см. При наведении курсора мыши на число - состояние снежного покрова и степень покрытия местности в баллах.